Location: Mount Graham
(32.7016°N, 109.8912°W)
Time: 22:13:23
(UTC-07:00)

Cosmos 1340 - Visible Passes

Search period start: 26 May 2018 00:00
Search period end: 05 June 2018 00:00
Orbit: 503 x 509 km, 81.2° (Epoch: 26 May)

Date Brightness Start Highest point End Pass type
(mag) Time Alt. Az. Time Alt. Az. Time Alt. Az.
26 May 5.9 01:13:27 10° NNE 01:13:56 13° NNE 01:13:56 13° NNE visible
27 May 6.0 00:55:44 10° NNE 00:55:46 10° NNE 00:55:46 10° NNE visible
29 May 5.7 01:54:15 10° NNW 01:54:17 10° NNW 01:54:17 10° NNW visible
30 May 5.7 01:35:59 10° NNW 01:36:10 11° NNW 01:36:10 11° NNW visible
31 May 5.8 01:17:47 10° NNW 01:18:05 12° NNW 01:18:05 12° NNW visible
01 Jun 5.9 00:59:39 10° N 01:00:00 12° N 01:00:00 12° N visible
02 Jun 5.9 00:41:35 10° N 00:41:56 12° N 00:41:56 12° N visible
03 Jun 5.9 00:23:35 10° N 00:23:53 12° N 00:23:53 12° N visible
04 Jun 5.9 00:05:39 10° NNE 00:05:50 11° NNE 00:05:50 11° NNE visible
04 Jun 5.9 23:47:48 10° NNE 23:47:49 10° NNE 23:47:49 10° NNE visible
